Weather Roundup
Issued by NWS

Home | Current Version | Previous Version | Graphics & Text | Print | Product List | Glossary Off
Versions: 1 2 3 4 5 6 7 8 9 10 11 12 13 14 15 16 17 18 19 20 21 22 23 24 25 26 27 28 29 30 31 32 33 34 35 36 37 38 39 40 41 42 43 44 45 46 47 48 49 50

000
NZUS93 KARX 121759
HRRWXR

CURRENT HOURLY OBSERVATIONS ACROSS
MUCH OF THE UPPER MISSISSIPPI VALLEY
NATIONAL WEATHER SERVICE LA CROSSE WI
100 PM CDT SAT JUL 12 2014


...SOUTHEAST MINNESOTA...


CITY           SKY/WX    TMP DP  RH WIND       PRES   REMARKS
ROCHESTER      LGT RAIN  72  68  87 NW13      30.02S FOG
ROCHESTER/MAYO CLOUDY    71  66  84 W14       30.02R
WINONA         LGT RAIN  73  72  94 S3        29.98R
AUSTIN         RAIN      70  64  83 NW9       30.03S
ALBERT LEA     RAIN      68  64  88 NW8       30.03S
DODGE CENTER   RAIN      68  63  83 NW10      30.04R
PRESTON        RAIN      74  71  89 NW5       30.02S
OWATONNA       CLOUDY    72  64  78 S8        30.03R
FARIBAULT      LGT RAIN  77  59  53 S12G17    30.03R
$$

...ELSEWHERE IN MINNESOTA...


CITY           SKY/WX    TMP DP  RH WIND       PRES   REMARKS
MINNEAPOLIS    CLOUDY    78  64  61 W3        29.97S
INTNL FALLS    PTSUNNY   72  52  49 W6        29.96F
DULUTH         CLOUDY    74  57  55 VRB3      29.98F
RED WING       LGT RAIN  75  72  88 SW5       29.97R
REDWOOD FALLS  CLOUDY    69  67  93 NW3       30.03F
MANKATO        CLOUDY    70  63  78 W15G22    30.03R
WORTHINGTON    PTSUNNY   70  66  88 W7        30.07S
FAIRMONT       CLOUDY    70  63  78 W13       30.05F
$$

...SOUTHWEST WISCONSIN...


CITY           SKY/WX    TMP DP  RH WIND       PRES   REMARKS
LA CROSSE      CLOUDY    75  70  84 SW9       29.97R
PRAIRIE DU CHI NOT AVBL
BOSCOBEL       CLOUDY    79  69  71 CALM      30.00R
LONE ROCK      NOT AVBL
PLATTEVILLE    CLOUDY    77  71  82 S8        30.02S
FORT MC COY    CLOUDY    75  67  77 E9        29.94F
VIROQUA        MOCLDY    74  72  93 SE5       30.01R
WIS DELLS      CLOUDY    74  67  77 CALM      30.01R
$$

...ELSEWHERE IN WISCONSIN...


CITY           SKY/WX    TMP DP  RH WIND       PRES   REMARKS
MILWAUKEE      CLOUDY    75  69  81 S10       29.98F
MADISON        LGT RAIN  78  68  71 S6        30.00F
GREEN BAY      CLOUDY    77  68  73 CALM      29.98S
EAU CLAIRE     NOT AVBL
BLACK RVR FLS  FAIR      77  70  78 E3        29.95F
MEDFORD        CLOUDY    75  68  80 SW5       30.00S
WAUSAU         CLOUDY    76  67  73 CALM      29.97S
WIS RAPIDS     CLOUDY    76  68  76 SW3       29.99F
MARSHFIELD     LGT RAIN  74  70  87 SE3       29.98F
RICE LAKE      CLOUDY    73  69  85 CALM      30.00S
$$

...NORTHEAST IOWA...


CITY           SKY/WX    TMP DP  RH WIND       PRES   REMARKS
WATERLOO       CLOUDY    78  71  79 SE5       29.99S
DUBUQUE        CLOUDY    76  72  87 S9        30.02S
DECORAH          N/A    N/A N/A N/A MISG        N/A
MASON CITY     RAIN      74  72  93 NW9       30.04S FOG
CHARLES CITY   CLOUDY    77  72  83 CALM      30.01S
OELWEIN        CLOUDY    77  77 100 S8        30.01F
$$

...ELSEWHERE IN IOWA...


CITY           SKY/WX    TMP DP  RH WIND       PRES   REMARKS
DES MOINES     CLOUDY    85  73  67 SW9       29.96F HX  91
IOWA CITY      PTSUNNY   82  75  79 S7        30.00F
FORT DODGE     CLOUDY    73  70  88 CALM      30.04S
MARSHALLTOWN   CLOUDY    78  72  81 CALM      29.99F
CEDAR RAPIDS   PTSUNNY   80  73  79 SE6       29.99F
$$

...NORTHERN ILLINOIS...


CITY           SKY/WX    TMP DP  RH WIND       PRES   REMARKS
CHICAGO-OHARE  CLOUDY    77  69  76 SW18G29   30.01S
DUPAGE         CLOUDY    78  71  79 S15       30.03S
CHICAGO-MIDWAY CLOUDY    78  72  81 SW17G29   30.01F
MOLINE         CLOUDY    81  71  71 SW8       30.01F
ROCKFORD       CLOUDY    75  69  81 S13       30.04F
STERLING       CLOUDY    75  72  88 S3        30.04F
PEORIA         CLOUDY    81  72  74 S7        30.04S
$$

NOTE: "FAIR" INDICATES FEW OR NO CLOUDS BELOW 12,000 FEET WITH NO
SIGNIFICANT WEATHER AND/OR OBSTRUCTIONS TO VISIBILITY. WIND
SPEEDS ARE IN MILES-PER-HOUR.



USA.gov is the U.S. government's official web portal to all federal, state and local government web resources and services.